Temperature
19 18 18 18 17 17 17 17 17 16 16 16 16 16 16 16 16 16 15 15 15 15 15 15 15 15 15 15 15 14 14 14 14 14 14 14 14 14 14 13 13 13 13
19 18 18 18 18 17 17 17 17 16 16 16 16 16 16 15 16 15 15 15 15 15 15 15 15 15 15 14 14 14 14 14 14 14 14 14 14 13 13 13 13 13 13
19 19 18 18 17 17 17 17 17 16 16 16 16 16 15 15 15 15 15 15 15 15 15 15 15 15 15 14 14 14 14 14 14 14 14 15 15 14 13 13 13 13 13
19 18 18 17 17 17 17 17 16 16 16 16 16 16 16 16 15 15 15 15 15 15 15 15 15 15 14 14 14 14 14 14 14 14 14 14 14 14 14 13 13 13 12
18 18 17 17 17 17 17 16 16 16 16 16 16 16 16 15 15 15 15 15 15 15 15 15 15 14 14 14 14 14 14 14 14 14 14 14 14 14 14 13 13 12 12
18 18 17 17 17 17 16 16 16 16 16 16 16 16 15 15 15 15 15 15 15 15 15 15 15 14 14 14 14 14 14 14 14 14 14 14 14 14 14 13 13 12 12
18 17 17 17 17 17 16 16 16 16 16 16 16 16 15 15 15 15 15 15 15 15 15 15 14 14 14 14 14 14 14 14 14 14 14 14 13 13 13 13 13 12 12
18 17 17 16 16 16 16 16 16 16 16 15 15 15 15 15 15 15 15 15 15 15 15 15 14 14 14 14 14 14 14 14 14 14 14 13 13 13 13 13 13 13 12
17 17 16 16 16 16 16 16 16 16 15 15 15 15 15 15 15 15 15 15 15 15 15 14 14 14 14 14 14 14 14 14 14 13 13 13 13 13 13 13 13 13 13
17 16 16 16 16 16 16 16 16 15 15 15 15 15 15 15 15 14 15 15 15 15 14 14 14 14 14 14 14 14 14 13 13 13 13 13 13 13 13 12 12 12 13
17 16 16 16 16 16 16 15 15 15 15 15 15 15 15 15 15 14 14 14 14 14 14 14 14 14 14 14 14 14 14 13 13 13 13 13 13 13 12 12 12 12 12
16 16 15 15 15 15 15 15 15 15 15 15 14 14 14 14 14 14 14 14 14 14 14 14 14 14 14 14 14 13 13 13 13 13 13 13 13 13 12 12 12 12 12
16 16 15 15 15 15 15 15 15 15 14 14 14 14 14 14 14 14 14 14 14 14 14 14 14 13 13 13 14 13 13 13 13 13 13 13 13 13 12 12 12 12 12
16 16 15 15 15 15 15 15 15 14 14 14 14 14 14 14 13 13 14 14 14 13 13 13 13 13 13 13 13 13 13 13 13 13 13 13 13 12 12 12 12 12 12
15 15 15 15 15 15 15 14 14 14 14 14 14 14 13 13 13 13 13 13 13 13 13 13 13 13 13 13 13 13 13 13 12 13 13 12 12 12 12 12 12 11 11
15 15 15 15 15 15 14 14 14 14 14 14 13 13 13 13 13 13 13 13 13 13 13 13 13 13 13 13 13 13 13 12 12 12 12 12 12 12 12 12 12 11 11
15 15 15 15 15 14 14 14 14 14 14 13 13 13 13 13 13 13 13 13 13 13 13 12 12 12 13 13 13 12 12 12 12 12 12 12 12 12 12 12 12 11 11
15 15 14 14 14 14 14 14 14 13 13 13 13 13 13 13 13 13 13 13 12 12 12 12 12 12 12 12 12 12 12 12 12 12 12 11 11 11 11 11 11 11 11
14 14 14 14 14 14 13 13 13 13 13 13 13 13 13 12 13 12 12 12 12 12 12 12 12 12 12 12 12 12 11 11 11 11 11 11 11 11 11 11 11 11 11
14 14 14 14 14 13 13 13 13 13 13 12 12 12 12 12 12 12 12 12 12 12 12 12 11 11 11 11 11 11 11 11 11 11 11 11 11 11 11 10 10 10 10
13 13 14 14 13 13 13 13 12 12 12 12 12 12 12 12 12 12 12 12 12 11 11 11 11 11 11 11 11 11 11 11 11 10 10 11 11 10 10 10 10 10 10
13 13 13 13 13 13 13 12 12 12 12 12 12 12 12 12 11 11 11 11 11 11 11 11 11 11 11 11 11 11 10 10 10 10 10 10 10 10 10 10 10 10 10
13 13 13 13 13 12 12 12 12 12 11 11 11 11 11 11 11 11 11 11 11 11 10 10 10 10 10 10 10 10 10 10 10 10 10 10 10 10 10 10 10 9 9
12 12 12 12 12 12 12 12 11 11 11 11 11 11 11 11 11 11 10 10 10 10 10 10 10 10 10 10 10 10 10 10 9 9 9 9 9 9 9 9 9 9 9
12 12 12 12 12 12 12 11 11 11 11 11 11 11 11 10 10 10 10 10 10 10 10 10 10 10 9 10 10 10 9 9 9 9 9 9 8 8 9 9 9 9 8
12 12 11 11 11 11 11 11 11 11 11 11 10 10 10 10 10 10 10 10 10 10 10 10 10 9 10 10 9 9 9 9 9 9 8 8 8 8 8 8 8 8 8
Wind_Speed
4 4 4 4 4 4 4 3 3 3 3 2 2 2 2 1 1 1 1 2 2 3 4 3 4 3 3 3 4 4 4 4 3 3 3 4 4 4 4 4 4 5 6
4 4 4 4 4 4 4 3 3 3 3 2 2 2 1 1 1 1 1 1 2 3 4 4 4 4 4 4 4 4 3 3 1 1 1 2 3 3 3 3 3 4 5
4 4 4 4 4 4 4 3 3 3 3 3 3 3 2 2 2 2 1 1 2 3 4 4 4 4 4 4 4 4 4 3 2 0 1 0 1 1 2 3 3 3 3
3 3 4 4 4 4 4 4 3 3 3 4 3 3 2 2 1 1 2 2 2 3 3 4 4 4 4 4 5 4 3 3 2 1 1 1 1 1 1 1 2 3 3
3 3 4 4 4 4 4 3 3 3 3 3 3 3 2 2 2 2 2 2 2 2 3 4 4 4 4 4 4 3 3 3 2 1 1 1 1 2 1 1 1 2 2
3 3 3 4 4 4 4 4 4 4 3 4 4 3 3 3 3 3 3 2 2 2 3 3 3 4 4 4 4 4 4 3 2 2 2 2 2 2 1 2 2 1 1
3 4 4 4 4 4 4 4 3 4 4 4 4 4 4 4 4 3 3 2 2 2 3 3 4 4 4 5 5 4 4 4 3 3 2 2 2 2 2 2 2 1 1
3 3 3 4 4 4 4 4 4 4 4 4 4 4 4 3 3 3 3 3 2 2 3 3 4 4 4 4 4 4 3 3 3 3 3 2 2 2 2 2 2 2 1
2 3 3 3 4 4 4 4 4 4 4 4 3 4 4 3 3 3 3 2 2 2 3 3 4 4 4 4 4 3 4 3 3 3 3 3 2 3 3 3 3 3 2
1 1 2 3 3 4 4 4 4 4 4 4 3 3 3 3 3 3 2 3 3 3 3 4 3 3 3 4 4 4 3 4 3 2 3 3 3 3 3 3 3 3 3
1 1 1 2 3 4 4 4 3 4 4 4 4 4 3 3 3 3 2 2 2 3 3 4 4 4 4 4 4 4 4 4 4 4 4 4 3 3 3 3 3 3 2
1 1 1 2 3 3 3 4 4 4 3 4 4 4 3 3 3 3 3 3 3 3 3 3 4 4 4 4 4 4 5 5 5 4 3 3 3 4 3 3 3 2 2
1 1 2 2 3 3 3 4 4 4 4 4 4 4 4 4 4 3 3 3 3 3 3 4 4 4 4 4 4 5 5 5 4 4 4 4 4 4 3 4 3 2 2
2 2 2 2 3 3 3 4 4 4 4 4 4 5 4 4 4 3 3 3 3 3 3 3 4 4 4 3 4 4 4 4 4 4 4 4 4 4 4 4 4 3 3
3 3 3 3 3 3 4 4 4 5 5 5 5 4 4 4 3 3 3 2 3 3 3 3 3 3 3 3 3 3 3 4 4 3 3 2 1 1 2 2 3 3 3
4 4 4 4 4 4 5 5 5 5 5 5 5 4 4 4 4 4 3 2 2 3 3 3 3 3 2 2 1 3 3 4 3 3 3 2 3 3 3 2 2 2 4
4 4 4 4 5 5 5 6 6 5 5 5 5 5 5 5 5 4 3 3 4 3 3 3 3 3 2 4 2 3 3 3 3 3 3 2 2 3 4 5 6 4 3
4 5 5 5 5 4 4 5 5 6 6 6 5 5 5 5 4 4 4 4 4 4 3 4 3 2 3 4 3 3 4 3 3 3 3 3 3 3 3 4 4 4 4
5 5 5 4 4 4 4 5 6 6 6 6 6 6 5 5 5 5 4 4 4 4 3 3 4 4 4 4 4 3 3 3 3 2 2 3 3 2 3 4 4 4 3
4 4 3 4 3 3 4 5 5 6 6 6 6 6 6 6 6 5 5 4 4 4 3 3 4 4 4 4 5 4 3 3 2 2 2 1 1 2 3 4 5 5 4
4 3 3 3 3 3 4 5 5 6 6 5 6 6 6 6 6 5 4 4 4 4 4 3 3 4 3 4 4 4 3 3 3 2 2 2 3 3 3 5 4 4 4
3 2 2 2 2 3 4 5 5 5 5 5 5 6 6 5 4 4 4 4 4 4 4 4 3 3 3 3 4 4 4 4 4 3 3 2 3 3 4 4 2 3 4
3 2 2 2 2 3 4 5 4 4 5 5 5 5 5 5 5 5 5 5 4 4 4 4 4 3 3 3 4 5 5 5 4 3 1 2 4 4 4 5 5 5 5
3 3 3 3 2 3 4 4 3 4 5 6 5 5 5 5 5 4 5 5 5 5 5 4 4 4 4 4 4 4 4 5 5 4 3 4 4 5 4 4 5 5 4
4 4 4 3 3 3 3 4 4 4 5 6 6 6 5 5 5 5 5 6 6 5 6 5 5 5 5 4 4 4 5 5 4 4 4 4 4 4 4 4 4 4 5
4 4 4 4 4 4 4 4 4 5 6 6 6 5 5 5 5 5 4 3 4 4 5 5 5 5 4 4 5 5 5 4 5 4 5 5 5 6 6 6 5 5 5
Wind_Direction
188 178 180 177 177 179 183 175 183 182 175 168 173 167 166 174 153 139 132 159 177 170 161 167 156 152 148 146 140 126 118 110 101 96 89 87 73 65 71 63 65 68 64
185 175 182 178 180 178 181 179 183 176 166 160 166 160 154 156 135 153 143 155 168 174 177 178 170 165 158 160 151 144 146 138 152 112 123 119 116 74 67 74 68 63 70
198 179 183 184 182 181 179 182 181 173 163 160 154 147 146 181 168 161 150 153 164 169 178 180 175 173 174 171 171 172 173 174 172 260 341 357 74 86 87 67 70 61 58
191 179 179 181 181 178 174 179 176 173 168 172 171 169 178 184 171 156 144 153 155 167 177 175 174 176 182 181 187 189 188 189 201 218 301 323 122 233 144 107 84 69 61
186 178 178 176 167 157 159 165 165 171 172 176 172 191 195 187 176 177 160 155 140 145 163 174 180 183 184 188 189 191 207 211 232 247 231 179 200 233 209 173 137 101 75
175 169 157 154 152 146 149 159 170 166 170 180 186 195 192 193 187 186 179 175 158 153 163 177 187 192 189 191 193 202 211 228 236 253 242 219 226 215 208 202 187 139 92
164 157 151 158 153 155 158 161 170 170 174 185 192 198 201 201 197 196 190 190 175 172 180 186 201 200 194 196 200 208 217 218 230 246 253 249 249 235 229 207 197 200 178
139 138 150 163 164 165 166 171 176 172 172 185 198 202 200 210 204 207 210 207 201 195 193 195 203 202 201 203 202 211 213 220 223 234 243 244 245 240 215 219 210 217 227
125 135 146 158 164 170 176 182 186 180 180 186 199 205 200 207 212 214 221 213 208 198 194 197 203 200 200 209 207 207 208 214 230 239 240 239 234 233 227 221 224 238 242
142 154 162 170 169 176 178 180 193 189 184 186 195 209 213 213 216 215 215 213 212 201 193 200 199 194 195 205 206 208 209 209 221 237 245 241 240 228 223 222 229 247 252
209 200 197 186 178 173 176 178 187 186 185 190 199 206 207 217 215 211 214 218 217 203 197 202 204 197 198 203 200 207 208 214 220 224 229 234 235 224 220 220 221 232 237
236 199 192 191 186 180 179 184 190 186 188 196 198 204 206 210 217 213 214 215 211 206 208 205 203 202 207 208 208 211 215 219 224 229 226 227 220 221 220 220 221 221 226
236 197 187 197 201 196 195 196 199 195 191 197 202 201 207 214 217 214 207 210 209 206 205 202 204 209 209 206 208 218 219 220 228 235 235 231 219 219 211 214 218 216 203
238 219 209 216 219 210 205 207 206 203 198 197 204 207 210 216 219 209 207 210 209 208 207 204 207 208 209 210 208 218 219 223 227 236 242 238 229 228 216 214 212 204 193
256 248 240 241 232 216 213 212 204 203 200 199 206 209 209 207 209 206 210 212 213 212 211 209 209 204 207 206 208 217 221 221 222 227 235 238 229 302 233 223 214 205 199
258 255 252 248 244 232 221 213 207 205 203 206 208 202 208 204 209 210 206 209 220 217 200 203 196 198 200 130 209 240 226 226 223 221 220 209 197 188 181 183 195 214 210
268 262 261 256 253 244 229 219 212 203 204 210 208 201 204 204 209 208 202 208 212 206 198 201 197 201 174 150 182 244 237 229 233 228 217 216 214 209 207 189 186 195 216
273 272 271 268 260 247 234 218 208 204 205 206 206 206 207 206 207 205 207 211 205 203 208 203 205 203 186 163 180 229 229 224 225 218 215 216 216 215 213 200 195 201 210
281 277 275 267 261 243 227 214 206 205 206 206 209 209 210 208 206 208 214 212 201 199 206 205 204 206 198 170 187 223 216 218 222 223 223 225 219 178 219 208 202 200 203
284 279 277 267 254 237 216 210 208 210 213 211 213 212 212 212 212 215 219 208 201 204 206 207 212 211 213 175 189 224 219 215 212 214 219 223 230 188 235 222 219 219 215
295 291 279 267 247 219 209 215 216 218 217 212 212 213 212 214 215 213 213 206 201 201 207 211 217 217 213 185 190 218 225 221 220 223 225 211 167 195 234 255 240 236 237
305 294 280 265 224 207 208 216 223 223 213 206 207 210 210 207 208 209 208 205 202 204 207 208 216 222 213 206 199 212 236 259 233 233 230 207 175 212 234 241 226 229 237
306 289 272 258 220 209 217 223 222 216 208 206 208 209 207 204 204 200 198 201 204 212 216 213 220 226 224 206 196 207 219 238 243 241 234 217 204 216 223 210 212 220 227
302 292 273 254 241 224 220 230 226 214 211 212 211 210 208 204 202 201 202 208 210 213 218 219 225 231 229 222 213 212 213 215 227 230 199 202 219 229 228 217 220 230 233
293 286 273 265 254 237 231 231 227 218 217 217 215 213 209 205 207 208 213 218 221 224 225 226 225 225 231 228 226 223 222 224 225 222 226 228 227 230 231 233 231 227 225
287 282 271 261 253 241 236 230 228 224 222 220 217 216 211 207 210 211 218 227 241 233 236 247 246 239 242 207 209 226 232 218 199 215 227 230 232 234 235 235 234 231 229
Height
1541 1542 1542 1543 1544 1544 1545 1545 1546 1546 1547 1547 1548 1549 1550 1551 1551 1551 1552 1552 1553 1554 1554 1555 1556 1556 1557 1557 1558 1558 1558 1558 1558 1558 1558 1558 1558 1557 1557 1556 1556 1556 1555
1539 1540 1541 1542 1543 1543 1544 1545 1545 1545 1546 1546 1547 1548 1549 1550 1550 1550 1551 1552 1552 1553 1554 1554 1555 1556 1556 1557 1558 1558 1558 1558 1559 1559 1559 1559 1560 1558 1558 1557 1557 1557 1556
1537 1538 1539 1540 1541 1542 1542 1543 1544 1545 1545 1546 1547 1547 1548 1549 1550 1550 1550 1550 1551 1552 1552 1554 1554 1555 1556 1557 1557 1557 1558 1558 1559 1559 1560 1559 1559 1559 1559 1558 1557 1557 1556
1536 1537 1538 1538 1539 1540 1541 1542 1543 1544 1544 1545 1545 1547 1547 1548 1549 1549 1549 1550 1550 1551 1551 1553 1553 1554 1555 1556 1557 1557 1558 1558 1558 1558 1558 1559 1558 1559 1559 1559 1558 1557 1557
1534 1535 1536 1537 1538 1539 1539 1540 1542 1542 1543 1544 1545 1545 1546 1547 1548 1549 1549 1549 1549 1550 1551 1552 1553 1553 1554 1555 1556 1556 1557 1558 1558 1558 1558 1557 1557 1558 1558 1558 1558 1558 1557
1532 1533 1534 1535 1536 1537 1538 1539 1540 1541 1542 1543 1544 1545 1545 1546 1547 1547 1548 1548 1548 1549 1550 1550 1551 1552 1553 1554 1555 1555 1556 1557 1557 1557 1557 1557 1557 1557 1557 1557 1557 1557 1557
1531 1532 1533 1533 1534 1535 1536 1537 1538 1539 1540 1541 1543 1543 1544 1545 1546 1546 1547 1547 1548 1548 1548 1549 1550 1551 1552 1553 1554 1554 1555 1555 1555 1556 1556 1556 1556 1556 1556 1555 1555 1555 1555
1530 1531 1532 1532 1533 1534 1535 1536 1537 1538 1539 1540 1541 1542 1543 1544 1544 1545 1545 1546 1546 1547 1547 1548 1549 1550 1551 1551 1552 1553 1553 1554 1554 1554 1554 1554 1554 1554 1554 1554 1554 1554 1555
1529 1530 1531 1531 1532 1533 1533 1534 1536 1537 1538 1539 1540 1541 1542 1542 1543 1543 1544 1544 1544 1545 1545 1546 1547 1548 1549 1550 1550 1551 1551 1552 1552 1552 1553 1553 1553 1552 1552 1553 1553 1554 1553
1529 1529 1529 1530 1531 1531 1532 1533 1534 1535 1536 1537 1538 1539 1540 1541 1541 1541 1542 1542 1543 1543 1543 1544 1545 1546 1547 1548 1548 1549 1549 1550 1550 1550 1550 1550 1551 1550 1550 1550 1551 1551 1552
1527 1527 1528 1528 1529 1530 1531 1532 1533 1534 1534 1535 1536 1537 1538 1539 1539 1539 1540 1540 1541 1541 1541 1542 1543 1544 1545 1545 1546 1547 1547 1548 1548 1548 1548 1548 1548 1548 1548 1548 1548 1549 1549
1526 1526 1526 1526 1527 1528 1529 1530 1531 1532 1532 1533 1534 1535 1536 1537 1537 1537 1538 1538 1538 1539 1539 1540 1541 1542 1542 1543 1544 1544 1545 1545 1546 1546 1546 1546 1546 1546 1546 1546 1546 1546 1547
1524 1524 1524 1524 1525 1525 1526 1527 1529 1529 1530 1531 1532 1533 1534 1534 1535 1535 1535 1536 1536 1537 1537 1538 1539 1540 1540 1541 1541 1542 1543 1543 1543 1544 1544 1544 1544 1544 1544 1544 1544 1544 1544
1522 1522 1522 1522 1523 1523 1524 1525 1526 1527 1528 1529 1529 1531 1531 1532 1532 1533 1533 1534 1534 1535 1536 1536 1537 1537 1538 1538 1539 1540 1540 1540 1541 1541 1541 1541 1541 1541 1542 1542 1542 1542 1542
1520 1520 1520 1520 1520 1521 1521 1522 1523 1524 1525 1526 1527 1528 1529 1529 1530 1530 1531 1531 1532 1533 1533 1534 1535 1535 1536 1536 1537 1537 1537 1538 1538 1538 1538 1538 1538 1538 1539 1539 1539 1540 1540
1518 1518 1518 1518 1517 1518 1518 1519 1520 1521 1522 1523 1524 1525 1526 1526 1527 1528 1528 1529 1529 1530 1531 1532 1533 1533 1533 1534 1534 1534 1534 1535 1535 1535 1535 1535 1535 1536 1536 1536 1536 1537 1537
1516 1516 1515 1515 1515 1515 1515 1515 1517 1518 1519 1520 1521 1522 1523 1524 1524 1525 1526 1526 1527 1528 1528 1530 1530 1531 1531 1531 1531 1532 1532 1532 1532 1532 1533 1533 1533 1533 1533 1533 1533 1534 1534
1513 1513 1512 1512 1512 1511 1512 1512 1513 1515 1516 1517 1518 1519 1520 1521 1522 1522 1523 1524 1524 1525 1526 1527 1528 1528 1529 1529 1529 1529 1530 1530 1530 1530 1530 1530 1530 1530 1530 1530 1531 1531 1531
1510 1510 1509 1509 1508 1508 1508 1509 1510 1511 1513 1513 1514 1515 1517 1518 1519 1519 1520 1521 1522 1522 1523 1524 1525 1525 1526 1526 1527 1527 1527 1527 1527 1527 1527 1527 1527 1527 1527 1528 1528 1528 1528
1507 1506 1506 1505 1505 1505 1505 1506 1507 1508 1509 1510 1511 1512 1514 1514 1515 1516 1517 1518 1519 1520 1521 1521 1522 1523 1523 1524 1524 1524 1525 1525 1525 1524 1524 1524 1524 1524 1524 1525 1525 1525 1526
1504 1503 1502 1501 1501 1501 1502 1503 1504 1505 1506 1507 1508 1509 1510 1511 1512 1514 1514 1516 1516 1517 1518 1519 1519 1520 1521 1521 1521 1522 1522 1522 1522 1521 1521 1521 1521 1521 1521 1521 1522 1522 1523
1502 1500 1500 1499 1498 1498 1499 1500 1501 1502 1503 1504 1505 1506 1507 1508 1509 1510 1511 1512 1513 1514 1515 1515 1516 1517 1517 1518 1518 1518 1518 1519 1519 1518 1518 1518 1518 1518 1518 1518 1518 1518 1519
1500 1499 1498 1497 1496 1497 1497 1498 1498 1499 1500 1501 1501 1502 1503 1504 1505 1506 1507 1509 1510 1510 1511 1512 1513 1513 1514 1514 1514 1515 1515 1515 1515 1515 1515 1515 1515 1514 1514 1514 1514 1515 1515
1498 1497 1496 1495 1495 1495 1495 1495 1496 1496 1497 1498 1499 1500 1500 1501 1502 1503 1504 1505 1506 1507 1508 1508 1509 1509 1510 1510 1510 1511 1511 1511 1511 1511 1511 1511 1511 1511 1510 1510 1510 1510 1511
1496 1495 1494 1493 1493 1492 1492 1492 1493 1493 1494 1495 1496 1496 1497 1498 1499 1500 1501 1502 1503 1504 1504 1505 1505 1506 1506 1506 1507 1507 1507 1507 1507 1507 1507 1507 1507 1507 1507 1506 1506 1506 1506
1494 1493 1492 1491 1491 1490 1490 1489 1490 1490 1491 1491 1492 1493 1494 1494 1495 1496 1497 1498 1499 1500 1500 1501 1502 1502 1502 1502 1502 1503 1503 1503 1503 1503 1503 1503 1503 1503 1503 1502 1502 1502 1502